DW9711 Weather Reports


Display with metric or nautical units.
time (UTC)temp
F
wind
direction
speed
MPH
gust
MPH
rain 1hr
in
rain 24hr
in
rain mn
in
humidity
%
barometer
mb
20260831234035 90 163 0.0 0.0 0.00 0.00 0.00 61 1014.0
20260831233533 91 163 0.0 1.0 0.00 0.00 0.00 60 1014.0
20260831233032 91 163 0.0 1.0 0.00 0.00 0.00 59 1014.1
20260831232533 91 163 0.0 3.0 0.00 0.00 0.00 58 1014.2
20260831232031 91 163 0.0 3.0 0.00 0.00 0.00 57 1014.2
20260831231531 91 163 1.0 3.0 0.00 0.00 0.00 57 1014.3
20260831231031 92 163 1.0 3.0 0.00 0.00 0.00 56 1014.3
20260831230530 92 163 1.0 3.0 0.00 0.00 0.00 56 1014.3
20260831230029 93 163 1.0 3.0 0.00 0.00 0.00 56 1014.4
20260831225529 93 163 1.0 2.0 0.00 0.00 0.00 56 1014.5
20260831225029 93 163 0.0 2.0 0.00 0.00 0.00 54 1014.5
20260831224528 93 163 0.0 4.0 0.00 0.00 0.00 56 1014.5
20260831224027 93 165 1.0 4.0 0.00 0.00 0.00 55 1014.5
20260831223530 94 157 1.0 4.0 0.00 0.00 0.00 55 1014.6
20260831223028 94 157 1.0 4.0 0.00 0.00 0.00 54 1014.6
20260831222527 94 71 0.0 4.0 0.00 0.00 0.00 54 1014.6
20260831222026 94 153 0.0 3.0 0.00 0.00 0.00 52 1014.6
20260831221526 94 159 1.0 3.0 0.00 0.00 0.00 54 1014.6
20260831221030 94 170 0.0 3.0 0.00 0.00 0.00 55 1014.7
20260831220526 95 171 0.0 3.0 0.00 0.00 0.00 53 1014.7
20260831220027 95 171 0.0 3.0 0.00 0.00 0.00 55 1014.8
20260831215527 94 171 1.0 5.0 0.00 0.00 0.00 53 1014.8
20260831215026 94 171 2.0 5.0 0.00 0.00 0.00 52 1014.8
20260831214526 94 184 1.0 4.0 0.00 0.00 0.00 55 1014.8
20260831214026 94 216 1.0 5.0 0.00 0.00 0.00 53 1014.8
20260831213525 94 216 2.0 6.0 0.00 0.00 0.00 53 1014.7
20260831213025 93 185 1.0 4.0 0.00 0.00 0.00 54 1014.8
20260831212525 93 187 0.0 3.0 0.00 0.00 0.00 56 1014.8
20260831212026 93 187 1.0 5.0 0.00 0.00 0.00 55 1014.8
20260831211529 92 188 2.0 5.0 0.00 0.00 0.00 55 1014.9
20260831211026 93 138 1.0 3.0 0.00 0.00 0.00 54 1014.9
20260831210524 93 121 0.0 4.0 0.00 0.00 0.00 54 1015.0
20260831210024 94 122 0.0 3.0 0.00 0.00 0.00 54 1015.0
20260831205527 94 187 0.0 5.0 0.00 0.00 0.00 54 1015.0
20260831205026 94 184 0.0 3.0 0.00 0.00 0.00 54 1015.1
20260831204522 94 186 1.0 3.0 0.00 0.00 0.00 54 1015.1
20260831204023 94 186 0.0 2.0 0.00 0.00 0.00 50 1015.1
20260831203521 95 186 0.0 6.0 0.00 0.00 0.00 52 1015.1
20260831203024 94 186 2.0 6.0 0.00 0.00 0.00 52 1015.1
20260831202520 94 174 1.0 4.0 0.00 0.00 0.00 54 1015.2
20260831202020 94 115 1.0 4.0 0.00 0.00 0.00 53 1015.2
20260831201520 94 178 1.0 4.0 0.00 0.00 0.00 53 1015.3
20260831201019 94 177 0.0 5.0 0.00 0.00 0.00 52 1015.3
20260831200519 94 177 1.0 5.0 0.00 0.00 0.00 51 1015.4
20260831200036 94 175 1.0 3.0 0.00 0.00 0.00 53 1015.5
20260831195518 94 178 0.0 3.0 0.00 0.00 0.00 54 1015.5
20260831195021 94 178 0.0 4.0 0.00 0.00 0.00 53 1015.6
20260831194517 94 180 0.0 6.0 0.00 0.00 0.00 52 1015.6
20260831194019 94 180 1.0 7.0 0.00 0.00 0.00 53 1015.6
20260831193517 94 189 0.0 6.0 0.00 0.00 0.00 54 1015.7
20260831193029 94 200 1.0 5.0 0.00 0.00 0.00 52 1015.7
20260831192516 93 184 0.0 5.0 0.00 0.00 0.00 54 1015.7
20260831192020 94 180 2.0 7.0 0.00 0.00 0.00 54 1015.9
20260831191515 94 182 1.0 5.0 0.00 0.00 0.00 55 1016.0
20260831191014 93 184 2.0 5.0 0.00 0.00 0.00 54 1016.0
20260831190515 93 289 1.0 6.0 0.00 0.00 0.00 56 1016.0
20260831190013 93 219 2.0 6.0 0.00 0.00 0.00 52 1016.0
20260831185513 93 159 0.0 6.0 0.00 0.00 0.00 55 1016.1
20260831185011 93 184 2.0 6.0 0.00 0.00 0.00 55 1016.2
20260831184510 93 214 0.0 6.0 0.00 0.00 0.00 52 1016.2
20260831184010 93 213 1.0 6.0 0.00 0.00 0.00 55 1016.3
20260831183511 92 176 2.0 5.0 0.00 0.00 0.00 55 1016.3
20260831183009 92 189 2.0 4.0 0.00 0.00 0.00 52 1016.4
20260831182508 92 182 2.0 6.0 0.00 0.00 0.00 53 1016.4
20260831182008 92 182 2.0 6.0 0.00 0.00 0.00 54 1016.5
20260831181507 92 202 0.0 4.0 0.00 0.00 0.00 56 1016.5
20260831181005 92 279 1.0 5.0 0.00 0.00 0.00 59 1016.6
20260831180507 92 206 2.0 5.0 0.00 0.00 0.00 55 1016.6
20260831180003 91 288 0.0 5.0 0.00 0.00 0.00 58 1016.7
20260831175502 91 293 0.0 7.0 0.00 0.00 0.00 56 1016.7
20260831175002 91 241 3.0 7.0 0.00 0.00 0.00 57 1016.8
20260831174503 91 154 0.0 5.0 0.00 0.00 0.00 57 1016.8
20260831174104 91 153 1.0 6.0 0.00 0.00 0.00 58 1016.9
20260831173600 91 178 3.0 6.0 0.00 0.00 0.00 57 1016.9
20260831173059 91 171 0.0 7.0 0.00 0.00 0.00 59 1016.9
20260831172558 91 200 3.0 7.0 0.00 0.00 0.00 57 1016.9
20260831172100 90 217 1.0 5.0 0.00 0.00 0.00 58 1017.0
20260831171557 90 240 1.0 7.0 0.00 0.00 0.00 57 1017.0
20260831171057 90 220 2.0 7.0 0.00 0.00 0.00 58 1017.1
20260831170557 90 257 2.0 6.0 0.00 0.00 0.00 61 1017.2
20260831165555 90 229 3.0 7.0 0.00 0.00 0.00 60 1017.3
20260831165053 90 178 1.0 6.0 0.00 0.00 0.00 61 1017.4
20260831164600 90 183 2.0 6.0 0.00 0.00 0.00 61 1017.5
20260831164052 90 198 1.0 9.0 0.00 0.00 0.00 62 1017.6
20260831163550 89 228 1.0 9.0 0.00 0.00 0.00 63 1017.5
20260831163049 89 226 3.0 9.0 0.00 0.00 0.00 61 1017.7
20260831162550 89 194 2.0 8.0 0.00 0.00 0.00 63 1017.7
20260831162046 88 228 3.0 10.0 0.00 0.00 0.00 64 1017.7
20260831161546 88 204 3.0 10.0 0.00 0.00 0.00 63 1017.7
20260831161048 88 191 2.0 7.0 0.00 0.00 0.00 63 1017.6
20260831160548 88 194 1.0 7.0 0.00 0.00 0.00 66 1017.6
20260831160047 88 241 2.0 7.0 0.00 0.00 0.00 65 1017.5
20260831155542 88 236 1.0 7.0 0.00 0.00 0.00 67 1017.6
20260831155040 87 223 2.0 7.0 0.00 0.00 0.00 66 1017.6
20260831154539 87 198 3.0 7.0 0.00 0.00 0.00 66 1017.6
20260831154039 87 195 3.0 7.0 0.00 0.00 0.00 67 1017.7
20260831153536 87 163 1.0 6.0 0.00 0.00 0.00 68 1017.7
20260831153036 86 244 2.0 7.0 0.00 0.00 0.00 67 1017.6
20260831152534 86 188 3.0 9.0 0.00 0.00 0.00 69 1017.6
20260831152033 86 203 2.0 7.0 0.00 0.00 0.00 69 1017.6
20260831151532 86 215 2.0 5.0 0.00 0.00 0.00 71 1017.5
20260831151031 85 195 1.0 11.0 0.00 0.00 0.00 72 1017.6
20260831150530 85 180 2.0 11.0 0.00 0.00 0.00 72 1017.6
20260831150028 85 210 3.0 9.0 0.00 0.00 0.00 72 1017.5
20260831145526 84 184 1.0 6.0 0.00 0.00 0.00 73 1017.5
20260831145025 84 166 2.0 7.0 0.00 0.00 0.00 74 1017.4
20260831144523 84 182 2.0 6.0 0.00 0.00 0.00 74 1017.4
20260831144022 83 178 1.0 7.0 0.00 0.00 0.00 75 1017.3
20260831143521 83 182 3.0 7.0 0.00 0.00 0.00 75 1017.2
20260831143022 83 162 2.0 6.0 0.00 0.00 0.00 75 1017.2
20260831142518 83 187 2.0 6.0 0.00 0.00 0.00 75 1017.2
20260831142017 83 180 2.0 7.0 0.00 0.00 0.00 76 1017.1
20260831141515 82 215 2.0 7.0 0.00 0.00 0.00 76 1017.1
20260831141015 82 207 1.0 7.0 0.00 0.00 0.00 77 1017.1
20260831140514 82 174 2.0 7.0 0.00 0.00 0.00 77 1017.1
20260831140012 81 182 1.0 6.0 0.00 0.00 0.00 78 1017.0
20260831135510 81 184 1.0 6.0 0.00 0.00 0.00 79 1017.0
20260831135009 81 191 1.0 5.0 0.00 0.00 0.00 79 1017.1
20260831134507 81 223 2.0 5.0 0.00 0.00 0.00 79 1017.0
20260831134006 80 179 1.0 10.0 0.00 0.00 0.00 79 1017.0
20260831133507 80 240 2.0 10.0 0.00 0.00 0.00 80 1017.1
20260831133003 80 204 1.0 5.0 0.00 0.00 0.00 81 1017.0
20260831132502 79 201 0.0 2.0 0.00 0.00 0.00 82 1017.1
20260831132101 79 202 0.0 2.0 0.00 0.00 0.00 82 1017.1
20260831131602 79 202 0.0 4.0 0.00 0.00 0.00 82 1017.0
20260831131100 78 202 1.0 4.0 0.00 0.00 0.00 82 1017.0
20260831130558 78 163 1.0 3.0 0.00 0.00 0.00 84 1016.9
20260831130057 78 182 0.0 2.0 0.00 0.00 0.00 84 1016.9
20260831125556 77 182 0.0 2.0 0.00 0.00 0.00 85 1016.7
20260831125053 77 182 0.0 4.0 0.00 0.00 0.00 85 1016.7
20260831124553 77 182 0.0 4.0 0.00 0.00 0.00 85 1016.6
20260831124050 76 181 1.0 3.0 0.00 0.00 0.00 86 1016.6
20260831123550 76 181 1.0 3.0 0.00 0.00 0.00 86 1016.5
20260831123049 76 181 0.0 3.0 0.00 0.00 0.00 86 1016.5
20260831122551 76 181 1.0 3.0 0.00 0.00 0.00 86 1016.5
20260831122047 76 184 1.0 3.0 0.00 0.00 0.00 86 1016.4
20260831121546 75 184 0.0 4.0 0.00 0.00 0.00 86 1016.2
20260831121046 75 184 1.0 3.0 0.00 0.00 0.00 87 1016.2
20260831120545 75 183 0.0 2.0 0.00 0.00 0.00 87 1016.2
20260831120045 75 183 0.0 2.0 0.00 0.00 0.00 87 1016.2
20260831115544 75 184 0.0 3.0 0.00 0.00 0.00 87 1016.2
20260831115043 75 184 0.0 3.0 0.00 0.00 0.00 87 1016.1
20260831114542 75 183 0.0 2.0 0.00 0.00 0.00 87 1016.0
20260831114041 75 184 0.0 1.0 0.00 0.00 0.00 87 1016.0
20260831113541 75 183 0.0 2.0 0.00 0.00 0.00 87 1015.9
20260831113040 75 184 0.0 0.0 0.00 0.00 0.00 87 1015.9
20260831112543 75 184 0.0 0.0 0.00 0.00 0.00 87 1015.9
20260831112038 75 184 0.0 0.0 0.00 0.00 0.00 86 1015.8
20260831111551 75 184 0.0 0.0 0.00 0.00 0.00 86 1015.8
20260831111038 75 184 0.0 0.0 0.00 0.00 0.00 86 1015.8
20260831110538 75 184 0.0 0.0 0.00 0.00 0.00 86 1015.7
20260831110046 75 184 0.0 0.0 0.00 0.00 0.00 86 1015.8
20260831105537 76 184 0.0 0.0 0.00 0.00 0.00 86 1015.8
20260831105037 75 184 0.0 0.0 0.00 0.00 0.00 86 1015.8
20260831104550 75 184 0.0 0.0 0.00 0.00 0.00 86 1015.7
20260831104036 75 184 0.0 0.0 0.00 0.00 0.00 86 1015.6
20260831103535 76 184 0.0 0.0 0.00 0.00 0.00 86 1015.6
20260831103038 76 184 0.0 0.0 0.00 0.00 0.00 86 1015.7
20260831102535 76 184 0.0 1.0 0.00 0.00 0.00 86 1015.6
20260831102034 76 184 0.0 1.0 0.00 0.00 0.00 86 1015.6
20260831101535 76 184 0.0 1.0 0.00 0.00 0.00 86 1015.5
20260831101032 76 184 0.0 1.0 0.00 0.00 0.00 86 1015.4
20260831100532 76 184 0.0 1.0 0.00 0.00 0.00 85 1015.4
20260831100033 76 184 0.0 2.0 0.00 0.00 0.00 85 1015.4
20260831095530 76 184 0.0 2.0 0.00 0.00 0.00 85 1015.4
20260831095033 76 184 0.0 0.0 0.00 0.00 0.00 85 1015.3
20260831094531 76 184 0.0 0.0 0.00 0.00 0.00 84 1015.3
20260831094029 77 184 0.0 0.0 0.00 0.00 0.00 84 1015.2
20260831093528 77 184 0.0 1.0 0.00 0.00 0.00 84 1015.2
20260831093037 77 184 0.0 1.0 0.00 0.00 0.00 84 1015.2
20260831092527 77 184 0.0 2.0 0.00 0.00 0.00 84 1015.2
20260831092030 77 184 0.0 3.0 0.00 0.00 0.00 84 1015.1
20260831091526 77 184 0.0 3.0 0.00 0.00 0.00 83 1015.1
20260831091026 77 184 0.0 3.0 0.00 0.00 0.00 83 1015.0
20260831090526 77 184 1.0 4.0 0.00 0.00 0.00 83 1015.0
20260831090026 77 184 1.0 3.0 0.00 0.00 0.00 83 1014.9
20260831085529 77 186 1.0 3.0 0.00 0.00 0.00 83 1014.9
20260831085026 77 186 1.0 4.0 0.00 0.00 0.00 83 1014.9
20260831084527 77 186 0.0 4.0 0.00 0.00 0.00 83 1014.9
20260831084024 77 184 1.0 3.0 0.00 0.00 0.00 83 1014.9
20260831083525 77 184 0.0 2.0 0.00 0.00 0.00 83 1014.9
20260831083024 77 184 0.0 3.0 0.00 0.00 0.00 83 1014.8
20260831082524 77 184 0.0 3.0 0.00 0.00 0.00 83 1014.7
20260831082028 78 184 0.0 2.0 0.00 0.00 0.00 83 1014.7
20260831081523 78 184 0.0 2.0 0.00 0.00 0.00 83 1014.6
20260831081024 78 184 0.0 2.0 0.00 0.00 0.00 83 1014.6
20260831080522 78 184 1.0 3.0 0.00 0.00 0.00 83 1014.6
20260831080024 78 184 0.0 3.0 0.00 0.00 0.00 83 1014.6
20260831075521 78 184 1.0 3.0 0.00 0.00 0.00 83 1014.7
20260831075021 78 184 1.0 3.0 0.00 0.00 0.00 83 1014.7
20260831074522 78 184 0.0 2.0 0.00 0.00 0.00 83 1014.7
20260831074020 78 184 0.0 2.0 0.00 0.00 0.00 83 1014.7
20260831073520 78 184 0.0 2.0 0.00 0.00 0.00 83 1014.7
20260831073020 78 184 0.0 2.0 0.00 0.00 0.00 83 1014.7
20260831072519 78 184 0.0 3.0 0.00 0.00 0.00 83 1014.7
20260831072019 78 184 1.0 3.0 0.00 0.00 0.00 82 1014.8
20260831071528 78 184 0.0 3.0 0.00 0.00 0.00 82 1014.8
20260831071017 78 184 0.0 3.0 0.00 0.00 0.00 82 1014.8
20260831070516 78 185 0.0 2.0 0.00 0.00 0.00 82 1014.9
20260831070016 79 185 0.0 1.0 0.00 0.00 0.00 82 1014.8
20260831065521 79 185 0.0 2.0 0.00 0.00 0.00 82 1014.9
20260831065016 79 185 0.0 2.0 0.00 0.00 0.00 82 1014.9
20260831064516 79 185 0.0 2.0 0.00 0.00 0.00 82 1014.9
20260831064016 79 185 0.0 2.0 0.00 0.00 0.00 82 1014.9
20260831063514 79 185 0.0 2.0 0.00 0.00 0.00 82 1014.9
20260831063014 79 184 0.0 4.0 0.00 0.00 0.00 82 1014.9
20260831062514 79 184 0.0 4.0 0.00 0.00 0.00 82 1014.9
20260831062015 79 186 0.0 3.0 0.00 0.00 0.00 82 1014.9
20260831061513 79 186 0.0 3.0 0.00 0.00 0.00 82 1014.9
20260831061012 79 186 0.0 3.0 0.00 0.00 0.00 82 1014.9
20260831060512 79 186 1.0 3.0 0.00 0.00 0.00 82 1014.8
20260831060012 79 186 1.0 3.0 0.00 0.00 0.00 82 1014.8
20260831055511 79 186 1.0 4.0 0.00 0.00 0.00 82 1014.9
20260831055011 79 186 1.0 4.0 0.00 0.00 0.00 82 1015.0
20260831054511 80 186 1.0 3.0 0.00 0.00 0.00 82 1015.0
20260831054013 80 184 1.0 3.0 0.00 0.00 0.00 81 1015.0
20260831053512 80 184 1.0 3.0 0.00 0.00 0.00 82 1015.1
20260831053017 80 184 0.0 2.0 0.00 0.00 0.00 82 1015.1
20260831052508 80 184 1.0 4.0 0.00 0.00 0.00 81 1015.1
20260831052011 80 184 1.0 4.0 0.00 0.00 0.00 81 1015.1
20260831051508 80 184 1.0 3.0 0.00 0.00 0.00 81 1015.1
20260831051007 80 184 1.0 3.0 0.00 0.00 0.00 81 1015.1
20260831050507 80 184 1.0 4.0 0.00 0.00 0.00 81 1015.1
20260831050009 80 185 2.0 4.0 0.00 0.00 0.00 81 1015.0
20260831045509 80 184 1.0 4.0 0.00 0.00 0.00 81 1015.0
20260831045005 80 182 1.0 4.0 0.00 0.00 0.00 81 1015.1
20260831044505 80 177 1.0 3.0 0.00 0.00 0.00 81 1015.0
20260831044005 80 176 0.0 2.0 0.00 0.00 0.00 81 1015.0
20260831043504 80 175 0.0 2.0 0.00 0.00 0.00 81 1015.1
20260831043005 80 175 0.0 2.0 0.00 0.00 0.00 81 1015.1
20260831042504 80 175 0.0 2.0 0.00 0.00 0.00 81 1015.1
20260831042004 80 175 0.0 2.0 0.00 0.00 0.00 81 1015.1
20260831041504 80 175 0.0 2.0 0.00 0.00 0.00 81 1015.1
20260831041004 80 174 0.0 1.0 0.00 0.00 0.00 81 1015.0
20260831040504 80 174 0.0 1.0 0.00 0.00 0.00 81 1015.0
20260831040005 80 174 0.0 1.0 0.00 0.00 0.00 81 1015.1
20260831035503 80 174 0.0 0.0 0.00 0.00 0.00 81 1015.0
20260831035003 80 174 0.0 1.0 0.00 0.00 0.00 81 1015.0
20260831034503 81 174 0.0 1.0 0.00 0.00 0.00 81 1015.0
20260831034004 81 174 0.0 0.0 0.00 0.00 0.00 81 1014.9
20260831033503 81 174 0.0 1.0 0.00 0.00 0.00 81 1014.9
20260831033003 81 174 0.0 1.0 0.00 0.00 0.00 81 1015.0
20260831032504 81 174 0.0 0.0 0.00 0.00 0.00 81 1015.0
20260831032003 81 174 0.0 0.0 0.00 0.00 0.00 81 1014.9
20260831031509 81 174 0.0 0.0 0.00 0.00 0.00 80 1014.9
20260831031002 81 174 0.0 0.0 0.00 0.00 0.00 80 1014.9
20260831030502 81 174 0.0 0.0 0.00 0.00 0.00 80 1014.9
20260831030003 82 174 0.0 0.0 0.00 0.00 0.00 80 1014.8
20260831025502 82 174 0.0 0.0 0.00 0.00 0.00 80 1014.9
20260831025002 82 174 0.0 0.0 0.00 0.00 0.00 80 1014.9
20260831024502 82 174 0.0 0.0 0.00 0.00 0.00 79 1015.0
20260831024003 82 174 0.0 0.0 0.00 0.00 0.00 79 1014.9
20260831023502 82 174 0.0 0.0 0.00 0.00 0.00 79 1014.8
20260831023001 82 174 0.0 0.0 0.00 0.00 0.00 79 1014.8
20260831022501 82 174 0.0 0.0 0.00 0.00 0.00 78 1014.7
20260831022101 82 174 0.0 0.0 0.00 0.00 0.00 78 1014.8
20260831021600 82 174 0.0 0.0 0.00 0.00 0.00 78 1014.7
20260831021100 82 174 0.0 0.0 0.00 0.00 0.00 78 1014.7
20260831020602 82 174 0.0 0.0 0.00 0.00 0.00 78 1014.6
20260831020100 83 174 0.0 1.0 0.00 0.00 0.00 77 1014.6
20260831015559 83 174 0.0 0.0 0.00 0.00 0.00 77 1014.5
20260831015101 83 174 0.0 0.0 0.00 0.00 0.00 77 1014.5
20260831014600 83 174 0.0 0.0 0.00 0.00 0.00 76 1014.5
20260831014101 83 174 0.0 0.0 0.00 0.00 0.00 76 1014.4
20260831013600 83 174 0.0 0.0 0.00 0.00 0.00 76 1014.3
20260831013100 83 174 0.0 0.0 0.00 0.00 0.00 76 1014.3
20260831012600 83 174 0.0 0.0 0.00 0.00 0.00 75 1014.2
20260831012059 84 174 0.0 0.0 0.00 0.00 0.00 75 1014.2
20260831011559 84 174 0.0 0.0 0.00 0.00 0.00 74 1014.2
20260831011058 84 174 0.0 0.0 0.00 0.00 0.00 74 1014.1
20260831010558 84 174 0.0 0.0 0.00 0.00 0.00 74 1014.1
20260831010058 84 174 0.0 1.0 0.00 0.00 0.00 73 1014.2
20260831005558 84 174 0.0 1.0 0.00 0.00 0.00 73 1014.1
20260831005102 85 182 0.0 0.0 0.00 0.00 0.00 73 1014.1
20260831004559 85 182 0.0 0.0 0.00 0.00 0.00 72 1014.0
20260831004101 85 182 0.0 0.0 0.00 0.00 0.00 72 1014.0
20260831003558 86 182 0.0 0.0 0.00 0.00 0.00 71 1014.0
20260831003101 86 182 0.0 0.0 0.00 0.00 0.00 71 1014.0
20260831002557 87 182 0.0 0.0 0.00 0.00 0.00 70 1014.0
20260831002057 87 182 0.0 0.0 0.00 0.00 0.00 68 1014.0
20260831001605 87 182 0.0 0.0 0.00 0.00 0.00 68 1014.0
20260831001057 88 182 0.0 0.0 0.00 0.00 0.00 67 1014.0
20260831000557 88 182 0.0 0.0 0.00 0.00 0.00 68 1014.1
20260831000100 89 182 0.0 0.0 0.00 0.00 0.00 67 1014.2
20260830235558 89 182 0.0 0.0 0.00 0.00 0.00 66 1014.1
20260830235057 89 182 0.0 0.0 0.00 0.00 0.00 66 1014.1
20260830234603 89 182 0.0 0.0 0.00 0.00 0.00 64 1014.1